Theta_e
335 334 337 338 339 338 337 335 333 332 334 336 336 337 337 337 338 338 337 337 337 337 337 336 335 335 335 334 335 335 334 333 332 326 321 321 323 325 325 325 325 325 325 327 330 331 332 333 333 333 332 332 330 328 328 327 326 326 326 328 329 330
336 335 337 339 338 338 338 336 333 333 336 336 337 337 338 338 338 339 338 337 338 337 336 336 335 334 333 333 333 333 331 332 330 324 320 319 320 322 324 325 325 326 325 327 330 330 331 333 333 333 333 332 330 328 328 327 326 325 326 327 329 329
336 336 337 339 338 339 338 335 333 334 337 337 337 337 338 338 338 339 339 338 338 338 337 335 335 333 333 331 330 329 328 330 327 322 321 321 319 320 323 325 326 326 326 328 330 330 331 333 333 333 333 331 329 328 327 327 325 324 326 327 329 330
337 336 337 339 339 339 338 335 334 336 338 338 337 337 337 337 336 337 337 338 338 338 337 335 335 334 333 329 327 328 328 328 326 322 322 321 320 320 321 323 325 327 326 328 329 329 331 333 333 333 332 331 329 328 327 326 325 324 325 328 330 330
337 336 338 340 340 339 338 336 336 338 338 338 337 337 336 335 335 336 336 337 338 338 336 335 335 334 333 327 325 328 328 326 324 322 323 321 321 321 321 322 325 327 327 328 329 329 331 333 333 333 332 331 329 327 327 326 325 325 326 328 330 330
337 337 339 339 339 339 337 337 338 338 338 338 337 335 335 335 336 336 336 337 337 336 335 335 335 333 331 327 324 326 325 324 323 323 323 322 323 323 323 323 325 327 327 328 328 328 331 332 333 333 333 331 329 327 327 326 325 325 327 329 330 331
337 338 340 339 339 338 337 337 338 338 337 337 335 333 334 335 335 336 336 335 335 335 334 333 333 332 331 328 326 325 325 324 324 325 326 326 326 327 326 326 327 327 327 328 328 328 330 332 333 333 332 331 328 327 327 326 325 326 328 330 330 330
338 339 340 339 338 337 336 337 338 337 336 335 333 332 333 335 335 334 334 334 333 333 332 332 332 331 331 329 327 326 325 327 328 328 329 329 329 329 329 329 329 328 329 329 329 329 329 330 332 332 332 330 329 327 327 326 326 327 329 330 330 330
339 339 340 338 338 336 336 337 337 336 335 333 332 332 333 335 334 332 333 333 332 332 332 332 331 329 330 329 328 326 325 328 330 331 331 331 330 330 330 331 330 330 331 330 330 330 329 330 330 332 332 330 329 328 327 326 326 328 330 329 329 329
339 340 339 338 337 337 336 337 336 335 333 332 330 331 332 334 333 331 332 333 332 333 334 333 331 329 328 327 326 326 327 329 331 331 331 331 331 331 331 331 331 331 331 331 330 330 330 330 329 331 332 331 329 328 327 326 327 329 329 328 328 329
340 339 339 337 337 337 336 335 334 333 332 331 329 328 331 333 333 333 333 333 333 334 334 333 332 330 328 326 326 328 330 331 332 332 331 331 330 330 331 331 331 331 330 330 330 330 331 330 330 331 332 331 330 328 327 327 328 328 327 327 327 328
340 339 338 336 336 337 335 334 333 332 331 330 328 327 331 335 335 334 334 334 334 334 334 333 332 331 330 328 326 329 332 333 333 332 331 331 330 330 330 330 330 330 329 329 330 331 331 331 331 332 332 332 330 328 327 326 328 327 327 328 328 328
339 339 338 336 336 335 332 332 331 330 330 330 328 327 332 335 335 336 336 335 335 334 333 333 333 332 331 330 328 330 332 333 332 332 331 330 330 330 330 330 330 329 328 329 330 330 331 331 331 332 332 331 329 327 326 327 328 328 329 329 329 329
338 338 337 335 335 334 331 330 330 329 329 329 328 328 332 332 332 335 336 335 335 334 334 333 333 333 332 332 330 331 332 332 332 331 330 330 330 330 330 330 329 328 328 328 330 330 331 331 331 331 331 330 328 325 325 327 327 328 330 329 329 330
337 337 336 335 334 332 330 329 329 329 329 330 328 330 333 331 330 334 335 334 334 334 334 333 333 333 333 333 332 332 332 331 331 331 331 331 331 331 330 330 329 328 327 328 329 330 330 330 330 331 330 328 326 323 323 324 324 327 329 328 329 329
336 336 335 334 333 331 329 329 328 329 330 330 330 332 333 330 330 334 334 334 334 333 333 333 333 334 334 333 333 332 332 331 331 332 331 331 332 331 330 329 329 328 327 328 329 329 330 330 330 329 328 327 325 323 323 323 324 327 327 327 328 327
336 335 334 333 332 331 329 328 328 330 331 330 332 334 332 331 332 334 334 333 333 333 333 333 333 334 333 333 332 332 331 331 332 332 331 331 332 331 330 330 328 327 327 327 328 329 330 330 331 328 328 328 326 325 325 323 324 325 325 326 326 325
335 334 333 333 332 331 329 329 329 331 332 331 333 334 331 331 333 334 333 333 333 333 332 333 333 333 333 332 331 331 331 331 332 332 331 331 332 331 330 329 328 327 327 328 328 329 329 330 330 329 329 330 328 327 327 326 325 324 324 325 325 324
335 334 333 332 331 330 330 330 331 332 333 332 333 333 331 331 333 333 333 333 334 333 333 333 333 333 333 332 331 332 332 332 332 332 331 331 331 330 329 329 328 328 328 328 328 329 329 329 329 330 330 330 329 329 329 329 329 327 326 327 326 325
334 333 332 331 331 331 331 332 332 332 332 331 332 333 331 331 333 333 333 334 334 333 333 333 333 333 333 333 332 332 333 332 332 332 331 331 331 330 329 328 328 328 328 328 328 329 328 329 329 330 329 329 329 329 329 329 329 329 329 329 329 328
333 333 332 331 331 332 332 332 332 332 331 330 331 332 331 332 334 334 333 334 333 333 333 333 333 333 333 333 333 332 333 333 332 332 331 331 331 329 328 328 328 329 329 328 328 329 329 329 329 329 328 328 327 327 328 329 328 328 328 328 329 329
332 332 332 332 332 332 333 333 331 330 330 330 330 330 331 333 333 334 334 333 333 333 333 333 333 333 333 333 333 333 333 333 332 332 331 331 330 329 328 328 328 329 329 328 329 329 330 330 328 328 327 326 325 325 326 328 329 328 327 328 328 327
332 332 331 331 332 333 333 333 331 330 330 331 331 331 333 333 333 334 335 334 334 334 334 334 334 333 333 333 333 333 333 333 332 331 332 331 330 330 329 328 329 329 329 329 329 329 330 329 328 327 327 328 327 326 326 325 327 328 327 327 326 326
331 331 331 331 332 333 333 332 331 331 332 332 332 333 334 333 333 334 335 334 334 335 334 334 333 333 333 333 333 333 333 332 331 331 332 331 331 330 329 328 329 329 329 329 328 328 329 328 328 327 328 328 325 326 329 324 322 325 327 326 325 325
330 331 332 332 332 333 332 332 332 333 333 333 333 334 334 333 333 333 334 334 334 335 334 334 333 333 333 333 333 333 332 331 330 331 332 331 331 330 329 329 330 329 329 329 328 328 329 328 328 327 327 327 326 329 330 323 320 322 324 326 326 325
331 332 332 332 332 332 332 332 333 333 334 334 333 333 333 332 332 333 333 334 334 334 333 333 333 332 332 332 333 333 331 330 331 332 332 331 331 330 329 329 330 330 329 329 329 329 329 327 328 327 326 327 328 329 327 322 323 322 322 325 326 325
331 331 332 332 332 333 333 333 333 333 332 332 332 332 331 332 332 333 333 333 332 332 333 333 332 332 332 332 332 332 331 331 331 332 332 332 332 331 329 329 330 330 329 329 329 329 329 327 327 328 327 327 327 327 325 323 324 323 322 323 324 324
332 332 333 333 333 333 333 333 332 331 331 331 330 331 331 332 332 332 332 331 331 331 332 332 331 331 331 331 331 331 331 331 332 332 332 332 332 332 330 329 329 329 329 329 329 329 329 328 328 328 328 327 326 326 325 323 323 323 322 322 322 323
332 333 333 333 333 333 333 332 331 331 330 330 330 331 332 332 332 331 330 330 330 330 330 330 330 330 329 330 330 330 331 331 331 331 332 332 332 332 331 330 329 329 329 329 329 329 329 328 328 328 327 327 325 323 323 322 322 322 322 322 322 322
332 333 333 333 333 333 333 331 330 330 329 330 331 331 332 332 331 329 329 329 329 328 329 328 328 328 327 327 328 329 329 330 330 330 331 331 332 332 331 331 331 330 330 330 330 329 330 329 328 328 327 326 324 322 321 320 321 322 321 321 321 321
332 332 333 333 334 334 333 331 329 329 329 330 331 331 332 331 329 328 326 326 326 326 326 326 325 325 325 325 325 326 327 328 329 329 330 330 331 332 332 331 331 331 330 330 329 329 330 329 328 328 327 327 325 323 322 321 320 322 321 319 320 320
332 333 333 334 334 333 332 330 329 329 329 329 330 330 330 329 328 326 325 325 325 325 325 324 324 324 324 324 324 324 325 326 327 328 328 329 330 331 332 331 331 331 330 330 329 329 329 329 329 328 327 327 326 324 324 323 321 322 322 321 321 319
332 333 333 333 333 333 331 330 329 330 329 327 328 328 327 327 326 325 325 325 325 325 325 324 324 324 324 324 324 323 323 324 326 327 327 327 328 329 330 331 330 330 329 329 329 328 328 329 328 328 328 327 325 325 324 322 321 321 322 322 321 318
332 332 332 332 332 331 330 329 329 329 328 326 326 326 326 325 325 325 325 324 324 324 324 324 324 324 324 323 323 323 323 324 326 326 326 326 327 328 329 330 329 328 329 328 328 327 328 328 328 328 328 328 326 325 323 321 321 321 321 321 321 319
332 331 331 330 330 328 328 328 328 329 327 326 326 326 326 325 325 325 324 323 324 324 324 324 324 324 323 323 323 324 324 325 326 326 326 326 325 326 328 329 329 328 328 328 328 327 327 327 327 327 327 327 327 325 322 321 320 320 321 321 321 321
331 329 327 327 327 327 327 327 328 329 328 327 326 326 326 325 325 325 324 324 324 324 324 324 323 324 323 323 323 323 324 325 325 325 325 325 325 326 327 328 329 328 328 328 328 327 327 326 326 327 327 327 328 327 324 322 320 320 321 320 320 320
328 326 325 326 327 327 327 327 328 328 327 326 325 324 324 325 325 324 324 324 323 323 322 322 323 323 323 323 322 322 323 323 324 324 325 326 327 327 328 328 328 328 328 328 328 327 327 326 326 327 327 328 327 327 325 322 320 320 320 320 319 319
Wind_Speed
22 23 23 22 22 21 19 19 19 18 17 16 15 13 14 14 14 15 15 15 15 15 15 15 14 13 13 12 13 12 10 9 8 9 11 13 13 14 14 14 14 14 13 13 14 15 14 13 14 16 15 13 12 10 9 10 11 12 12 12 11 11
24 23 24 23 22 21 20 20 19 18 17 16 15 14 14 14 15 15 15 15 14 15 15 15 14 13 13 12 12 11 10 9 8 8 9 11 12 12 12 12 13 13 13 13 14 14 14 14 15 16 16 14 12 10 10 10 11 12 12 12 12 10
25 25 25 23 22 21 21 21 20 19 18 16 16 16 15 15 15 15 15 14 14 13 14 13 12 12 12 12 12 11 10 9 8 9 8 9 11 11 10 11 12 12 13 13 14 14 13 13 15 16 16 14 12 11 10 11 11 11 11 12 12 11
25 26 25 24 23 22 22 21 21 19 18 17 17 17 16 15 15 15 14 14 14 13 13 11 11 11 11 12 12 11 11 10 9 9 8 8 9 9 9 10 11 12 12 14 14 13 12 13 15 16 16 15 12 11 11 11 11 11 11 12 12 11
26 27 26 25 24 23 22 21 21 19 18 18 18 17 15 15 15 15 15 14 14 13 13 12 11 11 11 12 13 12 11 10 10 9 8 8 9 9 8 9 11 12 12 14 14 13 12 13 15 17 16 15 12 11 11 11 10 10 11 12 12 11
28 28 27 26 24 22 21 21 21 20 19 18 18 17 15 15 14 14 15 15 15 14 13 13 11 10 10 12 13 12 11 10 9 9 8 8 9 8 8 9 11 12 13 14 14 12 11 13 16 18 16 14 12 11 11 10 9 9 11 12 12 11
30 29 28 27 25 23 22 22 21 20 19 18 17 16 15 15 14 15 15 15 15 14 14 13 12 10 9 10 11 11 10 9 9 9 8 8 8 8 9 10 11 11 12 13 14 12 11 12 15 17 16 14 12 11 10 9 8 9 11 12 10 8
31 30 29 28 26 24 24 22 21 20 18 18 17 15 15 15 15 15 14 15 15 14 13 13 11 10 9 9 10 10 10 10 9 9 8 8 7 8 8 9 9 10 10 11 12 11 10 11 13 15 15 14 12 10 9 7 8 10 11 10 9 7
29 30 30 28 26 25 25 23 21 20 18 18 16 14 14 15 15 14 14 14 13 12 12 12 11 10 9 9 9 9 10 10 9 8 8 7 6 6 7 8 8 8 8 9 10 10 9 10 11 13 14 14 12 10 8 8 9 10 10 9 9 8
27 28 29 27 27 27 26 23 21 19 18 18 14 11 12 14 15 14 15 14 12 11 11 10 9 8 8 8 8 8 9 9 8 7 6 6 6 5 6 6 7 7 7 8 9 9 9 9 11 12 13 14 13 10 9 9 10 10 10 9 10 9
27 27 27 27 27 27 25 23 20 18 17 15 12 12 12 14 15 15 15 13 11 10 8 7 5 5 6 6 7 8 8 8 6 6 5 4 5 4 5 5 6 6 7 8 9 9 8 9 11 12 13 13 12 11 10 10 10 10 10 10 11 11
26 27 28 27 26 27 24 22 20 17 15 11 12 15 15 15 16 15 14 12 10 8 6 5 4 4 5 6 6 6 7 6 5 4 4 3 4 4 4 5 5 6 7 8 9 9 9 9 11 12 13 14 13 11 10 10 11 11 11 11 12 12
27 28 28 27 26 25 22 20 19 16 14 12 15 18 16 15 14 14 13 10 9 7 5 5 5 4 5 6 6 6 6 5 3 3 3 3 3 3 3 4 5 6 7 8 9 10 10 9 10 12 13 13 13 12 11 11 10 10 11 10 11 11
27 28 27 26 26 23 20 19 18 16 14 14 18 17 14 14 12 11 10 10 8 7 6 6 5 5 6 7 7 6 6 5 4 3 3 3 3 3 3 4 5 7 8 9 10 11 10 10 11 12 14 14 14 12 11 11 10 9 10 9 9 8
28 28 27 26 24 22 20 20 18 17 16 17 18 15 14 14 13 10 9 9 8 6 6 6 5 5 6 7 8 7 7 6 4 4 4 4 3 3 3 4 5 6 9 10 10 11 10 10 12 13 15 14 13 13 11 10 9 9 9 8 7 7
28 27 26 26 24 22 20 20 18 18 18 18 17 14 14 14 12 12 10 8 7 6 7 6 6 6 6 7 8 8 7 5 4 4 5 5 4 3 3 5 6 6 9 11 12 11 11 12 13 14 15 12 10 12 10 8 9 9 8 7 7 6
28 27 26 26 24 22 20 20 18 18 19 18 16 14 14 13 12 12 11 8 7 7 7 7 7 6 6 7 7 7 5 5 5 5 5 6 5 4 3 6 8 7 8 11 13 13 13 13 13 13 13 10 9 10 8 7 8 8 7 7 6 6
27 27 26 25 22 21 19 19 19 19 18 17 15 14 13 13 13 12 10 9 8 8 7 7 7 6 6 7 7 6 6 6 5 5 6 7 6 5 5 6 9 10 10 12 14 15 14 14 13 12 11 10 9 8 6 6 7 7 6 6 6 6
27 27 25 24 21 19 18 19 19 19 17 16 15 15 14 14 13 11 10 9 9 9 8 7 8 7 7 7 7 7 7 7 6 5 7 7 7 7 7 8 10 12 13 13 14 16 15 14 13 12 10 9 7 7 6 6 6 6 6 5 5 5
25 27 24 22 20 19 18 19 19 19 18 17 16 16 15 13 12 10 9 9 9 8 8 8 8 8 8 8 8 8 8 7 6 6 7 7 8 8 8 10 11 13 15 15 15 16 15 15 15 13 10 9 7 7 6 7 7 7 6 6 6 5
22 25 24 22 21 20 20 20 19 20 19 18 17 16 15 13 11 10 8 9 9 8 7 8 8 8 9 9 9 9 9 8 7 7 7 7 8 9 9 10 11 14 17 19 18 16 16 18 17 14 11 10 11 10 8 8 8 8 8 8 7 5
20 22 22 23 23 22 21 21 20 20 20 18 16 16 15 13 11 9 8 9 9 8 8 8 8 8 8 9 10 10 9 8 7 7 8 8 9 10 10 11 14 17 18 20 19 18 19 18 14 12 13 11 11 11 10 10 10 10 9 9 8 7
20 20 20 21 23 24 22 21 20 19 18 17 15 14 13 12 10 9 9 9 9 9 8 7 7 7 7 8 9 9 8 7 8 8 9 10 10 11 11 12 15 18 20 20 18 19 19 14 13 14 13 7 4 6 8 9 12 12 9 9 9 9
22 22 21 20 22 23 21 19 18 17 16 15 14 13 12 10 10 9 9 9 8 7 7 6 6 6 7 7 7 7 6 8 9 9 10 11 11 12 13 15 16 18 22 21 19 18 15 13 17 16 8 4 2 2 2 5 12 13 10 10 10 10
23 24 23 21 21 21 20 19 17 15 14 13 12 12 11 10 10 9 9 8 7 6 6 6 6 6 7 7 7 7 7 8 10 11 11 11 12 12 14 16 18 20 22 23 22 17 12 14 17 12 7 5 3 1 1 4 9 10 9 10 10 9
23 24 24 22 21 21 21 20 19 19 17 15 14 12 12 11 11 10 9 8 7 7 7 7 7 7 7 7 7 8 8 9 10 11 12 12 12 13 15 17 18 21 22 23 24 19 15 18 16 9 9 8 2 3 8 8 5 5 8 10 10 9
23 24 24 23 21 21 21 20 20 21 19 17 16 14 12 11 11 10 9 9 9 8 8 8 8 7 7 6 6 8 9 9 11 12 12 13 13 14 15 17 19 21 21 21 23 20 18 20 16 9 9 7 2 8 18 13 6 5 5 6 8 10
24 24 23 23 22 21 21 20 19 19 18 16 15 14 12 11 11 10 10 10 9 9 9 8 8 7 7 6 6 8 9 9 10 11 12 13 13 13 15 17 18 19 19 19 20 19 18 20 18 11 9 6 3 12 18 14 13 14 6 3 5 8
24 24 23 23 22 20 20 20 19 18 16 15 14 13 12 12 11 10 10 10 10 10 9 9 8 7 7 7 7 7 8 9 10 10 11 11 12 13 14 16 17 17 17 16 16 16 16 20 18 11 8 6 7 14 14 9 15 17 9 6 5 4
24 23 23 22 21 20 19 19 19 18 16 15 14 13 13 13 12 12 11 12 11 11 10 9 9 8 7 7 7 7 8 8 9 9 10 10 11 13 14 15 16 16 16 15 15 14 14 17 16 11 9 8 9 14 11 7 11 14 10 8 6 6
23 22 23 22 21 19 18 18 19 18 16 15 15 15 15 14 14 13 13 13 13 12 11 10 9 8 8 7 6 6 7 8 8 9 10 10 11 12 12 13 14 14 14 13 13 13 13 15 16 14 11 11 11 14 13 11 14 16 13 10 8 7
22 22 23 22 21 19 19 19 19 18 17 17 17 17 17 17 16 15 14 14 12 11 11 10 9 7 6 5 4 4 4 6 8 8 9 9 10 10 10 11 13 13 12 12 11 12 13 14 16 16 14 12 13 14 16 17 17 18 17 17 17 10
23 23 23 22 21 20 20 21 21 20 19 20 19 19 18 18 17 16 14 13 12 11 11 10 9 7 5 4 3 2 1 4 7 7 7 8 8 9 9 10 12 11 11 10 10 11 12 13 15 16 15 14 13 15 16 16 17 18 17 22 23 14
23 22 23 22 21 21 21 21 22 21 21 21 21 20 19 18 17 16 14 12 12 11 11 10 9 7 5 4 3 2 1 4 8 8 7 8 7 8 9 10 10 9 9 9 9 10 11 11 12 14 15 15 14 14 14 13 16 18 18 22 25 20
24 23 22 22 21 21 21 22 23 23 22 22 21 20 19 18 17 16 13 12 11 10 9 9 8 6 5 4 3 3 3 5 8 8 7 7 6 7 9 9 9 8 9 9 9 10 10 9 10 12 14 15 14 14 13 12 15 17 18 21 24 26
24 23 22 21 21 21 21 22 23 23 22 21 20 19 19 18 17 15 13 11 10 10 9 8 7 7 6 5 4 3 3 4 6 6 6 5 5 6 7 8 9 8 9 9 9 8 8 7 8 10 12 14 14 13 12 12 15 16 17 19 21 24
23 23 22 21 21 21 22 22 22 22 22 21 20 18 18 18 18 16 13 12 11 9 8 7 7 8 7 6 4 3 2 2 3 4 4 3 3 5 6 6 8 8 8 8 7 7 7 6 7 9 11 12 12 13 12 12 15 16 15 18 19 20
Wind_Direction
167 166 167 166 164 164 161 159 156 158 157 152 153 153 152 154 158 157 156 155 151 148 145 144 142 140 140 139 137 136 138 140 135 125 120 123 130 140 147 147 145 141 136 132 127 122 120 122 130 140 145 147 143 135 125 116 113 113 117 118 114 109
169 171 171 168 167 165 162 161 159 159 157 155 155 155 156 157 159 160 161 163 159 153 149 148 146 142 140 137 136 137 139 139 133 124 118 120 126 132 142 146 145 141 137 135 130 124 122 125 133 141 147 150 148 140 131 122 116 114 118 121 119 116
172 174 173 170 169 166 166 164 161 160 158 157 156 157 158 159 160 162 166 168 166 160 155 150 145 140 137 135 133 134 135 134 128 121 118 118 122 128 136 144 146 141 137 135 131 126 124 130 140 147 150 154 153 146 136 127 119 116 119 121 122 118
174 175 175 171 169 168 168 166 161 160 159 158 157 159 161 161 161 162 165 168 169 165 157 149 142 140 139 137 134 135 135 132 129 124 123 120 122 127 134 141 142 141 138 134 130 127 126 133 145 151 154 157 158 150 139 129 123 120 121 122 122 117
176 177 176 173 171 170 169 165 162 160 160 160 160 160 163 165 161 162 163 165 168 162 158 153 150 152 148 144 141 142 140 135 132 127 127 127 126 129 135 136 137 140 138 133 130 128 127 132 145 153 156 160 161 152 140 132 128 125 125 124 125 124
178 178 177 175 172 171 169 165 164 163 162 163 163 162 166 167 161 162 163 165 166 162 163 161 159 162 154 147 145 143 138 134 134 130 130 132 129 127 130 130 132 137 136 134 132 129 128 131 143 151 157 162 161 152 141 135 135 132 130 127 129 134
178 177 176 176 173 170 169 167 167 166 166 166 164 164 166 166 162 164 165 167 168 165 166 163 163 166 158 147 142 139 135 134 135 132 129 130 128 123 121 122 127 131 131 133 132 131 130 130 141 150 155 161 160 152 145 141 144 140 135 131 133 140
177 175 175 175 174 171 169 169 170 169 169 166 165 165 165 165 164 165 169 172 172 171 168 165 165 166 160 150 143 140 136 136 136 133 133 131 126 121 116 114 119 123 122 128 133 137 137 132 140 148 152 157 159 156 151 152 153 148 141 139 142 144
176 175 175 174 174 171 170 171 170 170 167 163 161 163 166 168 166 168 176 178 176 175 171 168 166 164 159 155 152 147 141 141 141 140 139 133 123 118 114 110 111 115 114 120 133 143 147 140 139 147 153 156 161 161 160 164 160 153 150 153 154 148
178 177 175 174 174 171 170 171 169 170 169 163 161 166 174 175 173 176 180 179 179 178 174 168 164 165 166 165 162 152 144 143 145 142 134 127 120 114 113 111 108 109 111 117 130 144 154 147 139 147 156 161 164 164 167 169 163 158 156 158 157 149
180 179 178 176 175 172 171 169 166 171 173 169 170 178 188 186 181 182 181 180 181 179 175 170 169 175 180 182 173 158 150 150 153 145 130 122 120 117 119 118 110 106 111 119 129 141 155 150 139 145 157 164 166 167 172 171 164 159 154 150 149 147
184 182 182 179 176 172 170 168 169 175 178 176 177 182 194 198 189 183 183 183 180 176 176 187 194 191 196 200 189 172 164 162 164 157 146 134 128 130 130 126 117 110 115 127 135 143 156 154 142 146 157 164 168 170 171 170 166 159 152 147 144 144
187 185 185 181 177 173 172 173 175 182 186 185 183 187 197 203 195 183 183 188 184 177 186 211 211 206 214 214 209 195 183 178 185 183 171 158 143 140 135 132 125 118 126 139 147 150 156 158 150 150 157 164 169 169 168 168 166 162 158 151 146 144
186 186 186 184 179 178 181 181 181 187 192 189 185 190 198 201 200 190 187 193 192 187 200 218 216 216 221 220 222 215 212 216 226 224 192 177 157 146 142 141 134 129 136 151 160 159 164 166 156 156 162 167 166 160 164 163 159 165 166 157 152 150
185 185 187 186 181 183 188 185 185 190 192 190 187 191 196 195 197 201 204 200 193 195 206 215 214 218 221 220 225 227 229 224 223 221 196 179 166 154 150 154 152 143 144 159 168 166 175 171 159 163 164 165 160 151 154 156 156 169 166 154 156 155
185 186 188 185 185 192 195 189 189 192 190 189 188 190 195 197 199 209 218 209 197 200 206 210 211 216 221 219 227 234 226 202 193 204 193 178 170 164 164 162 158 159 156 162 170 171 172 165 158 160 156 158 158 145 144 148 152 159 151 147 151 142
186 188 188 186 191 198 199 193 193 193 189 188 188 191 194 199 206 215 221 213 205 208 208 208 208 216 220 214 223 225 205 181 181 193 191 181 176 171 176 171 160 166 170 165 172 172 161 155 154 150 147 160 162 141 137 140 141 143 137 140 140 129
188 188 188 191 195 199 198 194 192 191 188 186 188 192 196 202 209 216 220 219 217 213 211 209 208 216 215 207 212 205 186 185 186 184 185 182 180 165 163 179 166 164 173 170 172 171 158 149 146 140 142 159 154 136 134 138 138 139 136 136 136 132
189 188 189 192 194 194 193 190 188 188 188 189 192 195 199 204 209 216 222 223 221 215 212 211 208 214 212 205 205 198 187 189 189 181 182 180 178 167 161 177 174 163 164 166 169 167 157 146 138 136 143 146 135 127 129 134 141 143 138 135 138 138
187 187 185 187 188 187 187 186 186 187 189 192 196 200 202 206 212 219 223 219 214 212 211 209 208 213 215 207 201 201 193 188 188 185 186 184 177 172 167 173 174 162 155 155 159 162 158 148 137 130 133 129 118 115 117 118 121 121 120 124 131 143
182 185 185 184 185 184 184 182 183 187 191 194 198 202 203 208 214 214 211 207 204 205 205 206 209 215 220 213 205 203 196 189 190 186 190 192 181 174 170 170 166 156 151 150 151 156 156 147 135 125 120 112 99 95 100 107 104 95 99 112 120 126
178 183 188 190 190 189 188 186 184 187 191 193 197 200 203 207 208 201 197 198 198 199 202 208 212 216 218 215 210 203 192 192 194 185 186 193 185 174 171 173 164 152 148 150 151 154 153 147 138 133 126 111 91 83 86 95 95 85 85 100 107 102
179 183 187 190 190 190 190 189 188 187 188 189 191 195 200 202 197 192 194 196 201 202 202 208 212 213 212 212 215 205 189 194 199 189 187 189 185 179 175 177 171 159 149 148 151 155 157 154 146 139 125 111 97 82 77 78 80 78 82 91 93 94
186 188 187 184 184 185 185 187 188 186 186 186 187 189 190 191 189 192 193 195 206 208 201 204 205 207 211 210 210 203 194 199 201 194 190 189 186 183 180 179 176 169 158 149 149 156 168 170 153 143 120 88 114 108 84 80 76 70 79 92 87 90
185 185 184 180 180 181 180 179 177 173 174 176 177 182 183 183 186 190 193 196 205 204 198 201 201 201 207 206 198 193 196 201 200 193 188 190 187 181 181 183 179 176 169 160 157 158 173 178 164 156 145 130 120 96 187 139 98 71 74 94 93 92
180 181 183 181 179 180 178 176 171 166 167 168 170 178 184 182 184 186 187 191 192 189 189 189 193 196 196 199 195 189 192 197 197 191 185 186 186 180 181 185 184 181 178 171 167 163 166 175 175 172 163 157 161 173 160 148 116 68 78 93 97 95
177 179 181 180 179 181 179 176 174 173 173 173 172 177 182 181 181 181 177 179 177 173 176 177 181 187 185 188 190 187 189 193 192 189 185 185 186 183 182 187 188 186 185 180 176 171 167 174 179 180 175 172 185 166 159 151 145 140 105 91 97 98
178 178 179 179 180 182 180 177 176 177 176 179 179 176 177 178 177 175 171 169 165 163 166 168 171 173 171 174 180 183 185 188 192 192 189 188 189 188 187 189 191 191 194 191 187 183 179 182 185 182 173 167 156 164 163 159 156 149 129 104 106 97
179 179 179 181 182 182 183 179 177 178 179 181 183 176 173 175 172 170 166 161 159 158 159 159 159 157 154 157 161 169 179 187 196 199 196 193 192 193 192 193 193 193 197 197 197 199 196 193 191 180 166 159 149 157 160 158 154 145 127 131 140 122
180 181 181 182 182 181 183 182 179 182 182 182 182 178 174 173 170 165 160 155 152 150 149 148 148 146 145 146 150 159 170 181 192 198 200 195 191 194 196 197 197 196 198 201 203 209 211 206 198 184 180 183 161 156 154 147 150 144 126 117 127 148
179 181 181 181 182 181 183 184 183 184 185 183 182 179 176 174 170 163 156 151 148 145 143 143 142 141 140 139 142 151 164 175 182 189 194 193 189 191 194 195 196 196 199 203 206 209 212 211 202 190 194 203 191 180 179 181 171 155 140 127 127 143
180 181 182 182 183 184 184 185 188 186 184 182 181 179 177 175 170 164 158 154 153 151 149 149 147 143 142 139 134 139 158 175 179 180 185 187 187 190 192 192 193 196 199 203 208 208 207 208 202 197 201 207 207 204 200 197 184 167 160 153 144 138
181 182 184 185 186 187 186 188 190 187 181 179 180 180 178 177 172 168 165 163 165 165 163 161 157 157 159 155 153 151 162 179 175 167 168 176 184 189 193 192 192 197 202 204 206 205 205 205 205 206 206 201 204 210 209 203 188 175 168 157 145 135
181 183 186 188 189 190 190 192 192 188 182 181 182 183 181 179 175 173 172 172 174 174 173 171 169 171 172 160 159 167 164 174 171 162 161 171 180 190 195 194 194 199 202 202 200 198 201 204 204 207 207 202 204 209 209 204 191 180 171 160 151 143
181 182 186 188 190 192 192 194 193 189 185 185 185 186 185 182 179 178 177 177 176 173 175 177 176 177 172 157 152 154 140 152 163 164 167 175 184 197 202 201 201 205 204 202 200 198 199 202 202 202 204 205 206 205 205 202 195 188 180 172 164 158
182 180 182 185 188 192 193 191 190 188 188 190 189 189 190 187 184 180 179 178 173 169 172 176 177 173 164 154 150 151 143 148 163 171 174 181 194 204 204 203 203 205 204 202 202 203 204 204 204 201 200 204 206 203 202 202 198 193 185 180 176 170
180 177 179 182 185 189 190 188 188 190 191 192 192 192 191 189 185 181 181 180 174 171 171 169 170 167 164 160 157 165 175 179 192 195 189 185 195 199 193 193 197 198 202 204 203 203 204 204 202 201 198 200 202 200 196 198 199 195 189 186 183 179